When you browse on this site, cookies collect data to enhance your experience and personalize the content and advertising you see.
Visit our Privacy Policy to learn more. By continuing to use the site, you agree to this use of cookies and data.
  • Em Portugal
  • Lista de países
  • Para 7 dias
  • Temperatura da água
  • Mapa do tempo
  • Widgets de tempo
  • user-avatar
    Iniciar Sessão

    Previsão horária em Pasierbiec

    Hoje, 26 Janeiro, Domingo

    Tempo Temperatura Precipitação Vento Pressão Humidade
    00:00 -2°C° 0 mm 1 m/s 722 mmHg 78%
    01:00 -2°C° 0 mm 1 m/s 722 mmHg 77%
    02:00 -3°C° 0 mm 0 m/s 721 mmHg 77%
    03:00 -3°C° 0 mm 0 m/s 721 mmHg 76%
    04:00 -3°C° 0 mm 0 m/s 721 mmHg 76%
    05:00 -2°C° 0 mm 1 m/s 721 mmHg 75%
    06:00 -2°C° 0 mm 1 m/s 721 mmHg 75%
    07:00 -2°C° 0 mm 1 m/s 721 mmHg 74%
    08:00 -1°C° 0 mm 1 m/s 721 mmHg 71%
    09:00 0°C° 0 mm 1 m/s 722 mmHg 67%
    10:00 +1°C° 0 mm 1 m/s 722 mmHg 64%
    11:00 +2°C° 0 mm 1 m/s 722 mmHg 62%
    12:00 +2°C° 0 mm 1 m/s 721 mmHg 61%
    13:00 +2°C° 0 mm 0 m/s 721 mmHg 60%
    14:00 +1°C° 0 mm 0 m/s 721 mmHg 65%
    15:00 +1°C° 0 mm 0 m/s 720 mmHg 69%
    16:00 +1°C° 0 mm 1 m/s 720 mmHg 74%
    17:00 +1°C° 0 mm 1 m/s 720 mmHg 75%
    18:00 0°C° 0 mm 1 m/s 720 mmHg 76%
    19:00 0°C° 0 mm 1 m/s 720 mmHg 77%
    20:00 0°C° 0 mm 1 m/s 720 mmHg 77%
    21:00 0°C° 0 mm 1 m/s 720 mmHg 78%
    22:00 0°C° 0 mm 1 m/s 719 mmHg 79%
    23:00 0°C° 0 mm 1 m/s 719 mmHg 80%

    Amanhã, 27 Janeiro, Segunda-feira

    Tempo Temperatura Precipitação Vento Pressão Humidade
    00:00 0°C° 0 mm 1 m/s 719 mmHg 82%
    01:00 0°C° 0 mm 1 m/s 719 mmHg 84%
    02:00 0°C° 0 mm 1 m/s 719 mmHg 85%
    03:00 0°C° 0 mm 1 m/s 718 mmHg 86%
    04:00 0°C° 0 mm 1 m/s 718 mmHg 87%
    05:00 0°C° 0 mm 1 m/s 718 mmHg 87%
    06:00 0°C° 0 mm 1 m/s 718 mmHg 88%
    07:00 0°C° 0 mm 1 m/s 718 mmHg 88%
    08:00 +1°C° 0 mm 1 m/s 718 mmHg 85%
    09:00 +2°C° 0 mm 1 m/s 718 mmHg 82%
    10:00 +2°C° 0 mm 0 m/s 718 mmHg 79%
    11:00 +3°C° 0 mm 0 m/s 718 mmHg 77%
    12:00 +3°C° 0 mm 0 m/s 718 mmHg 75%
    13:00 +4°C° 0 mm 0 m/s 718 mmHg 73%
    14:00 +3°C° 0 mm 0 m/s 717 mmHg 78%
    15:00 +2°C° 0 mm 0 m/s 717 mmHg 83%
    16:00 +1°C° 0 mm 0 m/s 717 mmHg 88%
    17:00 +2°C° 0 mm 1 m/s 717 mmHg 88%
    18:00 +1°C° 0 mm 1 m/s 716 mmHg 89%
    19:00 +1°C° 0 mm 1 m/s 716 mmHg 89%
    20:00 +1°C° 0 mm 1 m/s 716 mmHg 89%
    21:00 +1°C° 0 mm 1 m/s 716 mmHg 89%
    22:00 +1°C° 0 mm 1 m/s 716 mmHg 89%
    23:00 0°C° 0 mm 1 m/s 715 mmHg 88%

    Depois de amanhã, 28 Janeiro, Terça-feira

    Tempo Temperatura Precipitação Vento Pressão Humidade
    00:00 0°C° 0 mm 1 m/s 715 mmHg 88%
    01:00 0°C° 0 mm 1 m/s 714 mmHg 88%
    02:00 -2°C° 0 mm 2 m/s 713 mmHg 87%
    03:00 -2°C° 0 mm 2 m/s 713 mmHg 87%
    04:00 -2°C° 0 mm 2 m/s 712 mmHg 87%
    05:00 -2°C° 0 mm 2 m/s 712 mmHg 86%
    06:00 -2°C° 0 mm 2 m/s 711 mmHg 86%
    07:00 -2°C° 0 mm 2 m/s 711 mmHg 86%
    08:00 +1°C° 0 mm 2 m/s 711 mmHg 82%
    09:00 +2°C° 0 mm 2 m/s 710 mmHg 79%
    10:00 +2°C° 0 mm 3 m/s 710 mmHg 75%
    11:00 +2°C° 0 mm 3 m/s 709 mmHg 76%
    12:00 +2°C° 0 mm 3 m/s 708 mmHg 77%
    13:00 +3°C° 0 mm 3 m/s 708 mmHg 77%
    14:00 +2°C° 0.1 mm 3 m/s 707 mmHg 81%
    15:00 +2°C° 0.1 mm 2 m/s 707 mmHg 85%
    16:00 +2°C° 0.1 mm 2 m/s 706 mmHg 88%
    17:00 +2°C° 0.2 mm 2 m/s 706 mmHg 91%
    18:00 +1°C° 0.2 mm 2 m/s 705 mmHg 93%
    19:00 +1°C° 0.2 mm 2 m/s 705 mmHg 95%
    20:00 +2°C° 0.3 mm 1 m/s 705 mmHg 96%
    21:00 +2°C° 0.3 mm 1 m/s 705 mmHg 97%
    22:00 +2°C° 0.3 mm 1 m/s 705 mmHg 98%
    23:00 +1°C° 0.9 mm 2 m/s 704 mmHg 98%

    29 Janeiro, Quarta-feira

    Tempo Temperatura Precipitação Vento Pressão Humidade
    00:00 -1°C° 0.9 mm 2 m/s 704 mmHg 98%
    01:00 -1°C° 0.9 mm 3 m/s 704 mmHg 98%
    02:00 -2°C° 0.7 mm 4 m/s 704 mmHg 96%
    03:00 -2°C° 0.7 mm 5 m/s 704 mmHg 94%
    04:00 -4°C° 0.7 mm 6 m/s 704 mmHg 92%
    05:00 -4°C° 0.1 mm 5 m/s 704 mmHg 88%
    06:00 -4°C° 0.1 mm 5 m/s 705 mmHg 83%
    07:00 -3°C° 0.1 mm 4 m/s 705 mmHg 78%
    08:00 -3°C° 0 mm 4 m/s 705 mmHg 78%
    09:00 -2°C° 0 mm 4 m/s 706 mmHg 77%
    10:00 -2°C° 0 mm 5 m/s 707 mmHg 77%
    11:00 -1°C° 0 mm 5 m/s 707 mmHg 75%
    12:00 -1°C° 0 mm 5 m/s 707 mmHg 74%
    13:00 0°C° 0 mm 5 m/s 707 mmHg 72%
    14:00 -1°C° 0.1 mm 5 m/s 707 mmHg 76%
    15:00 -1°C° 0.1 mm 4 m/s 707 mmHg 80%
    16:00 -1°C° 0.1 mm 3 m/s 707 mmHg 84%
    17:00 -2°C° 0.1 mm 4 m/s 708 mmHg 85%
    18:00 -3°C° 0.1 mm 4 m/s 708 mmHg 86%
    19:00 -3°C° 0.1 mm 4 m/s 708 mmHg 86%
    20:00 -3°C° 0 mm 4 m/s 708 mmHg 87%
    21:00 -3°C° 0 mm 4 m/s 708 mmHg 89%
    22:00 -4°C° 0 mm 4 m/s 709 mmHg 90%
    23:00 -4°C° 0.1 mm 5 m/s 709 mmHg 89%

    30 Janeiro, Quinta-feira

    Tempo Temperatura Precipitação Vento Pressão Humidade
    00:00 -4°C° 0.1 mm 5 m/s 709 mmHg 89%
    01:00 -4°C° 0.1 mm 6 m/s 709 mmHg 89%
    02:00 -4°C° 0.1 mm 6 m/s 709 mmHg 89%
    03:00 -4°C° 0.1 mm 6 m/s 710 mmHg 89%
    04:00 -4°C° 0.1 mm 6 m/s 710 mmHg 89%
    05:00 -4°C° 0.2 mm 6 m/s 711 mmHg 90%
    06:00 -4°C° 0.2 mm 6 m/s 711 mmHg 90%
    07:00 -4°C° 0.2 mm 6 m/s 712 mmHg 91%
    08:00 -4°C° 0.1 mm 6 m/s 712 mmHg 89%
    09:00 -4°C° 0.1 mm 6 m/s 713 mmHg 87%
    10:00 -4°C° 0.1 mm 6 m/s 713 mmHg 85%
    11:00 -3°C° 0.1 mm 6 m/s 714 mmHg 83%
    12:00 -3°C° 0.1 mm 6 m/s 714 mmHg 81%
    13:00 -2°C° 0.1 mm 6 m/s 714 mmHg 79%
    14:00 -3°C° 0 mm 6 m/s 714 mmHg 82%
    15:00 -2°C° 0 mm 5 m/s 714 mmHg 86%
    16:00 -2°C° 0 mm 4 m/s 715 mmHg 89%
    17:00 -3°C° 0.1 mm 4 m/s 715 mmHg 92%
    18:00 -3°C° 0.1 mm 4 m/s 715 mmHg 94%
    19:00 -3°C° 0.1 mm 4 m/s 716 mmHg 96%
    20:00 -3°C° 0.2 mm 4 m/s 716 mmHg 96%
    21:00 -2°C° 0.2 mm 4 m/s 717 mmHg 95%
    22:00 -1°C° 0.2 mm 3 m/s 717 mmHg 94%
    23:00 -2°C° 0.1 mm 3 m/s 717 mmHg 93%

    31 Janeiro, Sexta-feira

    Tempo Temperatura Precipitação Vento Pressão Humidade
    00:00 -2°C° 0.1 mm 3 m/s 717 mmHg 93%
    01:00 -4°C° 0.1 mm 3 m/s 717 mmHg 92%
    02:00 -4°C° 0 mm 3 m/s 717 mmHg 90%
    03:00 -4°C° 0 mm 3 m/s 717 mmHg 89%
    04:00 -3°C° 0 mm 2 m/s 718 mmHg 88%
    05:00 -3°C° 0 mm 2 m/s 718 mmHg 87%
    06:00 -3°C° 0 mm 2 m/s 718 mmHg 86%
    07:00 -3°C° 0 mm 2 m/s 718 mmHg 84%
    08:00 -2°C° 0 mm 2 m/s 718 mmHg 81%
    09:00 -1°C° 0 mm 2 m/s 718 mmHg 78%
    10:00 +1°C° 0 mm 2 m/s 718 mmHg 75%
    11:00 +2°C° 0 mm 2 m/s 718 mmHg 74%
    12:00 +2°C° 0 mm 2 m/s 718 mmHg 73%
    13:00 +3°C° 0 mm 2 m/s 718 mmHg 72%
    14:00 +3°C° 0 mm 1 m/s 718 mmHg 75%
    15:00 +3°C° 0 mm 1 m/s 718 mmHg 78%
    16:00 +2°C° 0 mm 1 m/s 718 mmHg 81%
    17:00 +2°C° 0 mm 1 m/s 718 mmHg 80%
    18:00 +1°C° 0 mm 1 m/s 718 mmHg 79%
    19:00 +1°C° 0 mm 1 m/s 718 mmHg 78%
    20:00 0°C° 0 mm 1 m/s 718 mmHg 77%
    21:00 0°C° 0 mm 1 m/s 718 mmHg 76%
    22:00 -2°C° 0 mm 2 m/s 718 mmHg 74%
    23:00 -2°C° 0 mm 2 m/s 718 mmHg 73%
    Mostrar mais